{"data":{"norad_id":48132,"intl_designator":"2021-027AS","name":"STARLINK-2474","alt_names":[],"object_type":"PAYLOAD","status":"ACTIVE","operator":null,"country":"US","launch_date":"2021-04-07","launch_site_code":"AFETR","launch_vehicle":null,"mission":null,"orbit_class":"UNKNOWN","rcs_meters":null,"size_class":null,"mass_kg":null,"dimensions":null,"purposes":["comms"],"wikipedia_slug":null,"has_3d_model":false,"image_url":null,"decayed_at":null,"tle_current":{"epoch":"2026-09-19T19:37:23.572416Z","epoch_age_seconds":88207,"freshness":"FRESH","line1":"1 48132U 21027AS  26262.81763394 -.00001805  00000+0 -46395-4 0  9995","line2":"2 48132  53.1620 344.3467 0001224  93.0313 267.0828 15.31713681302213","mean_motion":15.31713681,"eccentricity":0.0001224,"inclination_deg":53.162,"raan_deg":344.3467,"arg_perigee_deg":93.0313,"mean_anomaly_deg":267.0828,"bstar":-4.6395e-5,"rev_number":30221,"period_min":94.012348251657,"perigee_km":469.86091562761,"apogee_km":471.53751073259,"semimajor_km":6848.8362131801,"source":"CELESTRAK","updated_at":"2026-09-20T09:00:38.767777Z"}}}